Regional Weather Roundup
Issued by NWS

Home | Current Version | Previous Version | Text Only | Print | Product List | Glossary Off
Versions: 1 2 3 4 5 6 7 8 9 10 11 12 13 14 15 16 17 18 19 20 21 22 23 24 25 26 27 28 29 30 31 32 33 34 35 36 37 38 39 40 41 42 43 44 45 46 47 48 49 50

887
ASUS43 KDTX 030201
RWRMI
MICHIGAN HOURLY REGIONAL WEATHER ROUNDUP
NATIONAL WEATHER SERVICE DETROIT/PONTIAC MI
900 PM EST FRI DEC 02 2016

NOTE: "FAIR" INDICATES FEW OR NO CLOUDS BELOW 12,000 FEET WITH NO
SIGNIFICANT WEATHER AND/OR OBSTRUCTION TO VISIBILITY.

MIZ047>049-052>055-059>063-066>070-074>076-081>083-030300-
SOUTHEAST LOWER MICHIGAN

CITY           SKY/WX    TMP DP  RH WIND       PRES   REMARKS
ADRIAN         CLOUDY    36  29  75 NW6       30.23S WCI  31
ALMA           CLOUDY    36  30  79 W12       30.22R WCI  28
ANN ARBOR      CLOUDY    35  26  69 W12       30.21R WCI  27
BAD AXE        CLOUDY    38  32  79 W13       30.13R WCI  30
CARO           CLOUDY    37  32  82 W13       30.16R WCI  28
DETROIT CITY   CLOUDY    37  28  70 W8        30.18R WCI  31
DETROIT        CLOUDY    37  27  67 W12       30.21R WCI  29
FLINT          CLEAR     34  27  75 W8        30.20R WCI  27
GROSSE ILE     CLOUDY    37  27  69 NW12      30.20R WCI  29
HILLSDALE      CLOUDY    34  27  75 W7        30.21R WCI  28
HOWELL         CLOUDY    35  28  75 W8        30.20R WCI  28

CITY           SKY/WX    TMP DP  RH WIND       PRES   REMARKS
JACKSON        CLOUDY    34  26  72 NW7       30.22R WCI  28
LAMBERTVILLE   CLOUDY    38  29  68 NW7       30.22S WCI  33
LANSING        CLOUDY    35  26  69 W9        30.22S WCI  28
LAPEER         NOT AVBL
MASON          CLOUDY    34  28  77 W8        30.22R WCI  28
MONROE         CLOUDY    36  28  72 NW10      30.21R WCI  29
MT. CLEMENS    CLOUDY    38  28  68 W12       30.14R WCI  30
PONTIAC        CLOUDY    35  27  72 W14       30.16R WCI  26
PORT HOPE        N/A     41  34  76 W15G25    30.09R
PORT HURON     CLOUDY    37  30  75 W8G16     30.15R WCI  31
TRI CITIES     PTCLDY    34  31  88 W10       30.19R WCI  26
MIDLAND        FAIR      35  29  80 W7        30.18R WCI  29
TROY           CLOUDY    37  27  65 W9        30.19R WCI  31
SAGINAW HB     PTCLDY    36  30  80 W10       30.18R WCI  28
$$
MIZ043>046-050>051-056>058-064>065-071>073-077>080-030300-
SOUTHWEST LOWER MICHIGAN

CITY           SKY/WX    TMP DP  RH WIND       PRES   REMARKS
BATTLE CREEK   CLOUDY    35  29  78 NW6       30.24R WCI  30
BENTON HARBOR  CLOUDY    38  27  64 W7        30.27R WCI  33
BIG RAPIDS     CLOUDY    36  29  76 W6        30.20R WCI  31
COLDWATER      CLOUDY    36  28  73 W7        30.24R WCI  30
FREMONT        CLOUDY    35  26  70 W9        30.23R WCI  28
HOLLAND        CLOUDY    38  29  70 NW5       30.25R WCI  34
GRAND RAPIDS   CLOUDY    36  27  69 NW8       30.24S WCI  30
IONIA          CLOUDY    35  27  72 W9        30.22R WCI  27
KALAMAZOO      CLOUDY    36  27  69 W5        30.24R WCI  32
LUDINGTON      CLOUDY    37  31  79 W5        30.22S WCI  33
MARSHALL       CLOUDY    35  29  79 CALM      30.23R
MOUNT PLEASANT CLOUDY    36  31  82 W10       30.19R WCI  28
MUSKEGON       CLOUDY    37  29  72 NW7       30.25S WCI  32
SOUTH HAVEN    CLOUDY    39  29  66 NW7       30.25S WCI  34
$$
MIZ016>042-030300-
NORTHERN LOWER MICHIGAN

CITY           SKY/WX    TMP DP  RH WIND       PRES   REMARKS
ALPENA         CLOUDY    38  33  82 W9        30.12R WCI  31
BEAVER ISLAND  CLOUDY    38  33  84 W8        30.17R WCI  32
BELLAIRE       LGT SNOW  37  36  94 CALM      30.17S
CADILLAC       CLOUDY    33  32  94 W6        30.17R WCI  28
CHARLEVOIX     CLOUDY    39  34  83 NW10G17   30.19R WCI  32
FRANKFORT      CLOUDY    38  34  83 NW6       30.20S WCI  34
GAYLORD        LGT SNOW  36  32  85 NW5       30.13R FOG     WCI  32
GRAYLING       CLOUDY    35  34  96 W5        30.15R FOG     WCI  31
HARBOR SPRINGS CLOUDY    37  35  90 CALM      30.15R
HOUGHTON LAKE  CLOUDY    36  32  85 W10       30.16R WCI  28
MANISTEE       CLOUDY    38  31  76 W7        30.22R WCI  33
OSCODA         CLOUDY    39  33  79 W9        30.11R WCI  33
PELLSTON       CLOUDY    38  32  79 NW8       30.14R WCI  32
ROGERS CITY    CLOUDY    39  34  82 NW7       30.13R WCI  34
TRAVERSE CITY  LGT RAIN  38  35  89 W5        30.18S WCI  34
$$
MIZ007>008-015-030300-
EASTERN UPPER MICHIGAN

CITY           SKY/WX    TMP DP  RH WIND       PRES   REMARKS
KINROSS        LGT RAIN  34  34 100 NW10      30.11R WCI  26
MACKINAC ISLAN MOCLDY    35  32  91 W13       30.14R WCI  26
NEWBERRY       CLOUDY    34  33  96 W8        30.14R WCI  27
S. S. MARIE    CLOUDY    36  33  89 VRB5      30.10R WCI  32
MUNISING         N/A     38  32  79 NW15      30.17R WCI  29
$$
MIZ004>006-011>014-085-030300-
CENTRAL UPPER MICHIGAN

CITY           SKY/WX    TMP DP  RH WIND       PRES   REMARKS
MANISTIQUE     CLOUDY    35  33  93 NW6       30.17R WCI  30
ESCANABA       CLOUDY    35  29  78 W5        30.21S WCI  31
MENOMINEE      CLOUDY    35  28  75 VRB6      30.23S WCI  30
SAWYER-GWINN   CLOUDY    32  27  80 NW12      30.18R WCI  23
$$
MIZ001>003-009>011-084-030300-
WESTERN UPPER MICHIGAN

CITY           SKY/WX    TMP DP  RH WIND       PRES   REMARKS
IRON MOUNTAIN  CLOUDY    33  26  75 NW8       30.19R WCI  26
HOUGHTON       CLOUDY    32  27  81 NW7       30.18S WCI  26
COPPER HARBOR    N/A     36  29  75 NE15      30.19S WCI  27
IRONWOOD       CLOUDY    28  26  92 W8        30.24R WCI  20
$$

ABBREVIATIONS USED IN REMARKS
   TC - TEMPERATURE IN CELSIUS
  WCI - WIND CHILL INDEX
   HX - HEAT INDEX
  VSB - VISIBILITY





USA.gov is the U.S. government's official web portal to all federal, state and local government web resources and services.